Theta_e
300 302 301 300 300 301 302 301 303 305 304 305 307 308 309 310 325 330 330 331 329 328 328 330 329 329 329 328 327 326 323 320 316 305 304 305 308 311
299 300 301 300 300 301 302 301 302 303 305 306 308 308 310 313 328 330 330 330 329 327 327 329 328 329 328 327 326 324 321 317 308 303 305 304 305 309
299 300 301 301 302 301 302 303 303 304 306 307 309 309 309 312 325 329 328 329 328 327 325 328 327 328 327 326 325 321 319 311 303 303 303 303 302 305
299 300 300 301 302 302 302 303 305 306 308 310 311 311 314 314 321 327 327 328 328 327 325 327 326 327 326 324 322 317 315 304 302 302 303 302 302 304
300 300 301 301 302 302 304 306 308 310 310 310 311 309 313 316 323 326 327 327 327 327 326 326 324 325 325 322 319 316 311 303 302 302 302 302 302 305
301 301 301 302 301 303 306 308 310 310 311 312 312 311 315 317 321 324 324 325 325 326 326 325 321 320 322 318 315 315 310 302 302 302 302 302 303 305
301 301 302 302 303 305 309 310 312 312 312 312 314 315 315 315 321 323 321 322 323 325 324 322 320 319 319 315 313 314 311 303 302 302 302 302 304 305
301 300 301 302 303 306 307 310 313 313 314 315 315 315 316 318 320 320 320 320 321 323 322 321 321 318 317 313 311 312 311 303 302 302 302 302 304 304
301 301 301 302 303 303 306 309 311 316 315 315 315 315 315 318 320 319 320 320 320 321 320 319 318 317 316 313 310 311 310 303 302 302 302 302 304 305
300 301 301 303 301 304 307 309 310 313 317 316 315 315 314 318 319 319 320 319 319 319 318 316 315 314 315 312 310 310 310 303 302 302 302 302 304 305
300 302 302 302 301 306 308 309 310 312 315 317 316 316 315 316 320 319 321 320 319 317 316 315 313 313 314 312 310 309 310 303 302 302 302 302 304 306
301 301 300 301 304 306 308 310 312 314 318 319 318 318 316 316 320 320 321 321 318 316 315 314 312 312 311 311 310 310 308 304 302 302 302 302 305 307
300 299 300 301 304 306 309 311 315 317 318 320 320 318 316 317 321 322 322 320 318 317 315 314 313 313 312 310 310 310 308 304 302 302 302 302 304 307
299 299 299 302 304 307 308 310 313 316 321 321 320 320 319 320 322 323 322 321 319 318 316 314 314 314 310 310 310 308 307 305 303 303 303 303 305 307
299 299 301 303 304 305 306 308 311 316 321 320 319 320 321 323 323 323 323 322 320 320 316 315 314 314 314 312 309 308 306 305 303 303 303 303 306 306
299 300 302 303 302 304 304 306 308 313 321 320 320 322 324 323 324 324 323 322 320 318 317 316 315 315 313 311 310 307 307 305 304 303 304 303 305 306
299 301 302 301 301 302 303 304 306 310 323 322 322 323 325 324 325 324 323 321 320 317 315 315 315 314 313 312 309 308 306 307 305 304 304 304 306 306
300 301 302 301 301 301 302 303 304 308 314 323 323 324 326 325 325 323 321 321 319 316 315 313 313 312 311 311 311 308 307 308 305 305 305 305 305 306
299 300 301 302 300 301 301 302 303 305 310 321 324 326 326 326 324 322 321 321 318 316 314 313 313 313 312 309 309 309 308 308 305 305 306 305 305 306
298 299 300 301 300 300 301 302 303 305 311 322 324 326 326 326 322 320 320 318 316 315 313 314 314 314 313 310 307 309 310 309 306 305 305 305 305 305
297 299 299 301 299 299 300 301 303 306 311 317 325 325 326 323 320 319 319 317 316 314 313 314 314 314 313 312 308 306 306 311 310 308 305 305 304 303
297 298 299 300 299 299 300 301 303 306 311 318 326 325 324 322 319 319 317 316 315 314 314 314 315 314 312 312 307 304 304 305 306 307 305 306 305 303
297 298 299 300 299 299 300 301 302 305 307 310 325 325 323 322 319 318 317 316 315 315 313 311 312 313 312 308 306 303 303 304 304 305 305 306 306 305
Wind_Speed
30 28 29 26 28 31 32 33 24 12 12 24 25 24 27 41 38 48 49 54 53 48 41 38 34 31 28 27 25 23 19 18 16 11 8 6 4 1
33 32 32 29 32 32 34 35 33 26 13 23 33 23 28 32 36 47 46 51 53 50 45 39 37 33 30 29 28 24 22 19 15 11 9 5 3 0
35 32 30 30 32 38 36 35 30 28 15 28 29 26 35 32 28 41 41 46 48 50 47 40 38 35 33 31 28 25 23 20 15 11 9 6 2 1
34 32 30 32 32 34 36 40 31 31 30 11 16 24 27 28 27 41 38 41 43 48 48 43 40 38 34 31 28 25 23 19 15 12 9 6 2 1
31 33 32 31 33 38 35 35 25 28 27 21 16 23 28 25 24 41 38 37 40 45 46 43 41 39 34 31 28 25 24 19 16 13 9 6 2 1
31 34 33 30 36 40 36 35 24 21 17 16 18 26 21 18 23 34 29 34 33 40 43 44 41 38 35 31 28 25 24 20 16 13 10 6 3 3
35 34 29 31 41 42 34 30 20 25 23 24 20 17 20 21 24 33 31 32 30 35 35 37 41 38 35 32 29 26 24 21 17 13 10 7 5 3
32 32 34 32 36 37 36 33 29 23 25 22 16 12 19 28 32 34 30 29 10 30 35 30 39 38 39 35 31 27 25 21 17 14 11 8 5 3
30 31 35 33 35 37 35 34 31 18 27 28 19 17 11 15 32 32 33 34 25 30 36 27 35 35 40 37 31 27 25 22 18 14 12 9 6 5
30 33 31 31 39 40 36 34 33 27 33 29 29 22 18 29 35 41 39 33 26 32 37 16 28 26 37 35 30 27 25 23 19 15 13 10 6 6
31 25 25 30 40 37 36 32 30 28 19 36 30 22 18 16 35 36 34 32 20 31 38 25 25 21 29 31 29 26 24 23 20 16 14 11 8 7
24 26 27 29 39 42 38 32 25 23 14 28 35 31 23 18 39 40 40 30 30 20 33 19 31 26 8 26 30 28 25 22 20 17 14 12 9 7
23 29 30 34 41 44 42 32 21 24 19 26 28 25 27 23 40 36 41 42 39 22 43 31 38 25 11 13 24 29 29 27 23 19 15 12 9 8
25 30 33 36 39 41 37 33 32 23 20 26 25 25 27 21 36 31 40 39 38 24 50 37 31 34 18 15 14 27 31 29 27 23 19 14 12 12
28 31 35 35 34 34 34 35 29 21 25 25 23 24 26 28 36 30 36 34 33 24 45 41 40 35 34 26 24 27 31 31 28 25 22 17 16 14
27 32 32 26 32 29 30 29 28 24 26 24 23 22 27 34 34 33 34 32 29 30 35 33 39 43 27 31 34 32 29 22 35 29 23 20 15 12
33 28 22 26 29 29 33 31 27 22 15 24 22 20 28 34 32 35 33 35 26 31 29 32 33 32 29 37 22 30 33 22 41 33 27 23 16 13
27 20 17 19 26 29 27 29 27 22 18 23 21 22 31 36 32 33 36 36 29 29 29 31 36 31 26 10 20 30 29 29 37 34 30 26 20 17
19 19 20 17 24 29 27 25 25 26 22 15 21 25 29 36 35 34 35 34 28 30 31 36 36 32 10 4 9 31 33 34 35 33 31 25 24 21
22 19 20 19 22 29 29 29 27 25 18 13 22 23 33 33 33 34 34 30 30 30 29 31 32 33 26 13 11 21 32 40 38 34 31 20 17 17
22 20 21 18 21 30 28 29 27 24 20 14 24 29 28 33 34 35 33 34 35 30 29 31 29 29 27 26 21 19 26 32 37 41 37 27 23 17
23 22 22 20 22 29 30 30 29 24 21 11 30 35 32 36 35 36 35 33 33 32 29 28 34 33 31 19 23 26 28 27 27 28 34 19 20 14
23 24 24 21 24 27 30 28 28 24 23 24 26 40 38 36 36 36 35 35 30 31 30 29 31 28 22 26 33 30 29 35 30 30 22 11 13 5
Wind_Direction
289 282 287 288 300 282 277 279 265 272 276 281 273 280 282 279 241 205 203 202 201 197 197 196 195 194 184 180 180 181 178 174 171 179 182 193 174 98
293 286 285 293 300 287 281 273 264 262 259 250 245 266 283 294 214 195 194 197 197 196 197 195 193 194 184 178 181 186 182 176 175 175 184 192 186 136
289 285 287 300 294 297 285 277 257 253 264 266 256 274 274 271 230 190 191 190 189 196 197 192 192 194 190 185 186 184 185 178 175 177 189 189 198 326
289 285 286 301 290 298 295 285 257 248 246 232 235 269 251 277 245 184 180 181 183 191 194 192 192 194 193 188 185 183 183 179 173 181 188 184 180 280
286 293 289 299 295 302 291 288 264 263 220 223 235 251 263 262 219 176 172 172 179 186 191 191 191 195 195 190 185 182 182 179 176 183 184 185 168 95
297 298 292 290 306 299 292 291 247 252 260 269 253 257 244 234 215 165 160 166 167 177 186 189 189 193 195 191 185 183 182 178 178 183 184 182 154 95
303 303 292 300 308 305 303 313 303 237 229 240 229 238 239 240 209 167 157 159 169 172 172 178 185 190 194 192 186 184 183 180 178 181 182 179 146 90
301 306 303 303 308 307 313 317 307 225 212 219 197 214 237 254 172 165 160 158 160 175 170 170 183 184 191 191 188 185 184 181 180 179 184 175 143 95
305 305 304 304 315 313 312 317 314 248 214 204 214 207 227 205 169 168 167 168 175 174 169 165 175 179 191 193 189 185 185 181 181 180 184 174 151 125
308 312 306 302 316 312 315 318 315 317 209 213 232 237 243 246 196 175 170 168 165 166 166 156 166 174 187 191 188 188 188 182 184 181 182 175 157 156
319 321 314 308 311 311 316 313 306 302 284 210 226 239 246 227 185 173 171 160 156 164 168 155 168 156 178 185 186 193 191 185 185 180 181 174 168 164
317 319 316 314 312 316 316 305 287 277 254 209 212 225 215 224 189 180 169 166 163 162 178 146 162 158 150 187 187 191 190 189 186 181 181 176 178 179
324 320 317 316 316 318 319 315 300 293 253 203 199 194 207 218 188 187 177 174 172 177 175 161 169 166 135 140 177 191 190 184 187 183 182 179 180 177
317 314 313 315 317 320 322 319 316 301 244 190 190 188 197 203 186 188 181 182 184 176 169 180 174 169 138 138 159 183 190 190 190 185 178 175 173 175
315 313 314 316 323 322 321 322 322 301 179 182 181 188 196 182 179 191 180 179 178 186 172 182 173 179 160 161 157 170 170 190 192 188 180 176 167 168
314 316 315 324 323 320 325 325 325 325 181 181 187 191 173 167 178 184 171 164 161 160 177 179 174 180 160 158 159 163 176 170 190 191 182 176 181 186
317 314 315 332 328 326 329 329 324 324 201 180 183 180 175 170 181 172 163 160 159 159 160 168 173 176 176 163 152 170 169 173 184 184 179 176 181 185
318 317 315 329 331 323 320 318 324 327 323 184 196 191 177 171 172 165 162 168 163 163 157 153 152 139 135 131 189 164 170 172 177 181 177 170 174 180
319 318 319 313 329 320 313 321 321 317 303 220 184 180 171 169 167 164 167 170 162 165 161 162 163 159 156 130 160 184 166 172 166 172 177 177 178 177
320 309 318 310 324 321 318 324 319 313 306 216 179 182 173 170 164 164 169 166 162 162 161 170 172 175 169 157 150 172 191 171 165 166 171 172 172 168
315 306 314 305 326 325 322 318 320 315 311 277 181 181 176 170 165 165 168 167 162 162 168 176 177 171 160 146 121 134 166 189 184 172 171 161 158 167
312 312 313 314 331 327 323 323 329 330 331 317 189 183 175 171 165 166 167 163 166 169 168 163 170 166 155 155 144 139 150 159 172 179 175 168 171 177
306 319 318 317 332 328 326 327 328 337 336 342 195 175 172 172 167 166 166 164 162 161 153 146 152 156 150 148 143 144 146 150 157 157 165 180 187 213